DW2128 Weather Reports


Display with metric or nautical units.
time (UTC)temp
F
wind
direction
speed
MPH
gust
MPH
rain 1hr
in
rain 24hr
in
rain mn
in
humidity
%
barometer
mb
20260831102025 56 82 0.0 0.0 0.00 0.00 0.00 83 1011.0
20260831101831 56 82 0.0 0.0 0.00 0.00 0.00 83 1011.0
20260831100545 56 81 0.0 0.0 0.00 0.00 0.00 83 1011.0
20260831100331 56 81 0.0 0.0 0.00 0.00 0.00 82 1011.0
20260831095025 56 81 0.0 0.0 0.00 0.00 0.00 82 1011.0
20260831094835 56 81 0.0 0.0 0.00 0.00 0.00 82 1011.0
20260831093549 57 81 0.0 0.0 0.00 0.00 0.00 81 1011.0
20260831093352 57 81 0.0 0.0 0.00 0.00 0.00 81 1011.0
20260831092027 57 81 0.0 0.0 0.00 0.00 0.00 81 1011.0
20260831091834 57 81 0.0 0.0 0.00 0.00 0.00 81 1011.0
20260831090528 57 81 0.0 0.0 0.00 0.00 0.00 80 1011.0
20260831090339 57 81 0.0 0.0 0.00 0.00 0.00 80 1011.0
20260831085053 57 81 0.0 0.0 0.00 0.00 0.00 80 1011.0
20260831084837 57 81 0.0 0.0 0.00 0.00 0.00 80 1011.0
20260831083531 58 81 0.0 0.0 0.00 0.00 0.00 80 1011.1
20260831083338 58 81 0.0 0.0 0.00 0.00 0.00 80 1011.1
20260831082031 58 81 0.0 0.0 0.00 0.00 0.00 79 1011.2
20260831081840 58 81 0.0 0.0 0.00 0.00 0.00 79 1011.2
20260831080534 58 81 0.0 0.0 0.00 0.00 0.00 79 1011.3
20260831080319 58 81 0.0 0.0 0.00 0.00 0.00 79 1011.3
20260831075038 58 81 0.0 0.0 0.00 0.00 0.00 78 1011.1
20260831074827 58 81 0.0 0.0 0.00 0.00 0.00 78 1011.1
20260831073521 59 81 0.0 0.0 0.00 0.00 0.00 77 1011.2
20260831073330 59 81 0.0 0.0 0.00 0.00 0.00 77 1011.2
20260831072044 59 81 0.0 0.0 0.00 0.00 0.00 76 1011.1
20260831071828 59 81 0.0 0.0 0.00 0.00 0.00 76 1011.1
20260831070521 59 81 0.0 0.0 0.00 0.00 0.00 76 1011.1
20260831070329 59 81 0.0 0.0 0.00 0.00 0.00 76 1011.1
20260831065020 60 355 0.0 0.0 0.00 0.00 0.00 76 1011.2
20260831064827 60 355 0.0 0.0 0.00 0.00 0.00 76 1011.2
20260831063547 60 355 0.0 0.0 0.00 0.00 0.00 79 1011.4
20260831063332 60 355 0.0 0.0 0.00 0.00 0.00 79 1011.4
20260831062025 60 355 0.0 0.0 0.00 0.00 0.00 79 1011.5
20260831061828 60 355 0.0 0.0 0.00 0.00 0.00 79 1011.5
20260831060524 60 355 0.0 0.0 0.00 0.00 0.00 79 1011.5
20260831060339 60 355 0.0 0.0 0.00 0.00 0.00 78 1011.5
20260831055033 61 355 0.0 0.0 0.00 0.00 0.00 78 1011.5
20260831054858 61 355 0.0 0.0 0.00 0.00 0.00 78 1011.5
20260831053554 61 355 0.0 0.0 0.00 0.00 0.00 77 1011.5
20260831053339 61 355 0.0 0.0 0.00 0.00 0.00 76 1011.5
20260831052034 62 355 0.0 0.0 0.00 0.00 0.00 76 1011.5
20260831051844 62 355 0.0 0.0 0.00 0.00 0.00 76 1011.5
20260831050519 62 355 0.0 0.0 0.00 0.00 0.00 75 1011.5
20260831050348 62 355 0.0 0.0 0.00 0.00 0.00 75 1011.5
20260831045021 63 355 0.0 0.0 0.00 0.00 0.00 74 1011.5
20260831044829 63 355 0.0 0.0 0.00 0.00 0.00 73 1011.5
20260831043527 63 355 0.0 0.0 0.00 0.00 0.00 72 1011.3
20260831043336 63 355 0.0 0.0 0.00 0.00 0.00 72 1011.3
20260831042030 64 355 0.0 0.0 0.00 0.00 0.00 71 1011.0
20260831041836 64 355 0.0 0.0 0.00 0.00 0.00 70 1011.0
20260831040530 64 355 0.0 0.0 0.00 0.00 0.00 68 1010.9
20260831040322 65 355 0.0 0.0 0.00 0.00 0.00 68 1010.9
20260831035036 65 355 0.0 0.0 0.00 0.00 0.00 67 1010.7
20260831034841 65 355 0.0 0.0 0.00 0.00 0.00 67 1010.7
20260831033534 66 355 0.0 0.0 0.00 0.00 0.00 65 1010.5
20260831033344 66 355 0.0 0.0 0.00 0.00 0.00 65 1010.5
20260831032017 67 355 0.0 0.0 0.00 0.00 0.00 64 1010.5
20260831031830 67 355 0.0 0.0 0.00 0.00 0.00 64 1010.5
20260831030525 68 355 0.0 0.0 0.00 0.00 0.00 62 1010.4
20260831030329 68 355 0.0 0.0 0.00 0.00 0.00 62 1010.4
20260831025023 69 355 0.0 0.0 0.00 0.00 0.00 60 1010.3
20260831024833 69 355 0.0 0.0 0.00 0.00 0.00 60 1010.3
20260831023526 70 355 0.0 0.0 0.00 0.00 0.00 58 1010.1
20260831023335 70 355 0.0 0.0 0.00 0.00 0.00 57 1010.1
20260831022032 72 355 0.0 0.0 0.00 0.00 0.00 54 1010.0
20260831021822 72 355 0.0 0.0 0.00 0.00 0.00 54 1010.0
20260831020537 74 355 0.0 0.0 0.00 0.00 0.00 52 1009.9
20260831020325 74 355 0.0 0.0 0.00 0.00 0.00 52 1009.9
20260831015042 76 5 0.0 0.0 0.00 0.00 0.00 49 1009.9
20260831014828 76 5 0.0 0.0 0.00 0.00 0.00 49 1009.9
20260831013523 77 329 0.0 0.0 0.00 0.00 0.00 48 1009.9
20260831013330 77 329 0.0 0.0 0.00 0.00 0.00 47 1009.9
20260831012024 78 324 0.0 0.0 0.00 0.00 0.00 46 1009.9
20260831011833 78 326 0.0 0.0 0.00 0.00 0.00 47 1009.9
20260831010528 80 336 0.0 0.0 0.00 0.00 0.00 43 1009.9
20260831010335 80 336 0.0 0.0 0.00 0.00 0.00 44 1009.9
20260831005032 81 278 0.0 0.0 0.00 0.00 0.00 41 1009.9
20260831004837 81 278 0.0 0.0 0.00 0.00 0.00 41 1009.9
20260831003551 82 257 0.0 0.0 0.00 0.00 0.00 40 1009.8
20260831003340 82 257 0.0 0.0 0.00 0.00 0.00 39 1009.8
20260831002054 82 360 0.0 0.0 0.00 0.00 0.00 40 1009.9
20260831001838 81 5 0.0 0.0 0.00 0.00 0.00 41 1009.9
20260831000534 82 251 1.0 0.0 0.00 0.00 0.00 41 1009.9
20260831000340 82 251 1.0 0.0 0.00 0.00 0.00 38 1009.9
20260830235031 83 252 0.0 0.0 0.00 0.00 0.00 38 1009.9
20260830234821 83 5 0.0 0.0 0.00 0.00 0.00 39 1009.9
20260830233554 84 329 0.0 0.0 0.00 0.00 0.00 37 1009.9
20260830233322 83 329 0.0 0.0 0.00 0.00 0.00 37 1009.9
20260830232037 82 227 0.0 0.0 0.00 0.00 0.00 40 1010.0
20260830231823 82 227 1.0 0.0 0.00 0.00 0.00 38 1010.0
20260830230557 83 290 0.0 0.0 0.00 0.00 0.00 36 1010.0
20260830230324 83 237 0.0 0.0 0.00 0.00 0.00 38 1010.0
20260830225019 82 236 0.0 0.0 0.00 0.00 0.00 36 1010.1
20260830224824 83 275 0.0 0.0 0.00 0.00 0.00 37 1010.1
20260830223539 83 218 0.0 0.0 0.00 0.00 0.00 34 1010.3
20260830223326 83 327 0.0 0.0 0.00 0.00 0.00 36 1010.3
20260830222043 83 327 0.0 0.0 0.00 0.00 0.00 36 1010.4
20260830221850 83 327 0.0 0.0 0.00 0.00 0.00 36 1010.4
20260830220527 83 21 0.0 0.0 0.00 0.00 0.00 36 1010.5
20260830220335 83 21 0.0 0.0 0.00 0.00 0.00 35 1010.5
20260830215029 83 24 0.0 0.0 0.00 0.00 0.00 35 1010.8
20260830214833 83 351 0.0 0.0 0.00 0.00 0.00 35 1010.8
20260830213528 82 251 0.0 0.0 0.00 0.00 0.00 35 1011.0
20260830213339 82 251 0.0 0.0 0.00 0.00 0.00 33 1011.0
20260830212033 83 348 0.0 0.0 0.00 0.00 0.00 34 1011.0
20260830211838 83 348 0.0 0.0 0.00 0.00 0.00 34 1011.0
20260830210536 83 296 0.0 0.0 0.00 0.00 0.00 34 1011.1
20260830210401 83 296 0.0 0.0 0.00 0.00 0.00 34 1011.1
20260830205034 82 249 0.0 0.0 0.00 0.00 0.00 34 1011.4
20260830204823 82 345 0.0 0.0 0.00 0.00 0.00 34 1011.4
20260830203536 82 294 0.0 0.0 0.00 0.00 0.00 33 1011.5
20260830203322 82 250 0.0 0.0 0.00 0.00 0.00 34 1011.5
20260830202019 80 20 1.0 0.0 0.00 0.00 0.00 34 1011.5
20260830201828 80 21 1.0 0.0 0.00 0.00 0.00 34 1011.5
20260830200521 80 28 0.0 0.0 0.00 0.00 0.00 35 1011.6
20260830200350 80 28 0.0 0.0 0.00 0.00 0.00 34 1011.6
20260830195041 79 33 1.0 0.0 0.00 0.00 0.00 36 1011.8
20260830194822 79 34 1.0 0.0 0.00 0.00 0.00 35 1011.8
20260830193535 78 26 0.0 0.0 0.00 0.00 0.00 38 1011.8
20260830193327 78 26 0.0 0.0 0.00 0.00 0.00 37 1011.8
20260830192040 77 19 1.0 0.0 0.00 0.00 0.00 40 1012.0
20260830191823 77 31 1.0 0.0 0.00 0.00 0.00 39 1012.0
20260830190516 77 33 0.0 0.0 0.00 0.00 0.00 40 1012.1
20260830190323 77 32 0.0 0.0 0.00 0.00 0.00 39 1012.1
20260830185036 76 26 0.0 0.0 0.00 0.00 0.00 39 1012.0
20260830184845 76 26 0.0 0.0 0.00 0.00 0.00 40 1012.0
20260830183543 75 32 0.0 0.0 0.00 0.00 0.00 41 1012.2
20260830183329 75 32 0.0 0.0 0.00 0.00 0.00 41 1012.2
20260830182028 74 32 0.0 0.0 0.00 0.00 0.00 44 1012.3
20260830181817 74 32 0.0 0.0 0.00 0.00 0.00 46 1012.3
20260830180554 72 32 0.0 0.0 0.00 0.00 0.00 45 1012.5
20260830180341 72 32 0.0 0.0 0.00 0.00 0.00 45 1012.5
20260830175035 72 36 0.0 0.0 0.00 0.00 0.00 45 1012.5
20260830174821 72 36 0.0 0.0 0.00 0.00 0.00 45 1012.5
20260830173520 71 36 0.0 0.0 0.00 0.00 0.00 48 1012.6
20260830173329 70 36 0.0 0.0 0.00 0.00 0.00 47 1012.5
20260830172026 70 36 0.0 0.0 0.00 0.00 0.00 50 1012.5
20260830171851 70 36 0.0 0.0 0.00 0.00 0.00 51 1012.5
20260830170523 68 39 0.0 0.0 0.00 0.00 0.00 53 1012.5
20260830170329 68 39 0.0 0.0 0.00 0.00 0.00 54 1012.5
20260830165023 67 39 0.0 0.0 0.00 0.00 0.00 56 1012.5
20260830164833 67 39 0.0 0.0 0.00 0.00 0.00 56 1012.5
20260830163547 66 39 0.0 0.0 0.00 0.00 0.00 60 1012.5
20260830163334 65 39 0.0 0.0 0.00 0.00 0.00 60 1012.5
20260830162028 65 39 0.0 0.0 0.00 0.00 0.00 62 1012.6
20260830161855 65 39 0.0 0.0 0.00 0.00 0.00 61 1012.6
20260830160527 64 39 0.0 0.0 0.00 0.00 0.00 64 1012.6
20260830160335 63 39 0.0 0.0 0.00 0.00 0.00 64 1012.6
20260830155029 62 132 1.0 0.0 0.00 0.00 0.00 67 1012.6
20260830154837 62 132 1.0 0.0 0.00 0.00 0.00 68 1012.6
20260830153532 60 13 0.0 0.0 0.00 0.00 0.00 70 1012.8
20260830153336 60 12 0.0 0.0 0.00 0.00 0.00 70 1012.8
20260830152030 59 12 0.0 0.0 0.00 0.00 0.00 70 1012.8
20260830151858 59 11 0.0 0.0 0.00 0.00 0.00 70 1012.8
20260830150551 58 5 0.0 0.0 0.00 0.00 0.00 71 1012.7
20260830150336 58 5 0.0 0.0 0.00 0.00 0.00 70 1012.7
20260830145030 56 5 0.0 0.0 0.00 0.00 0.00 72 1012.7
20260830144839 56 5 0.0 0.0 0.00 0.00 0.00 72 1012.7
20260830143532 55 5 0.0 0.0 0.00 0.00 0.00 79 1012.6
20260830143322 54 5 0.0 0.0 0.00 0.00 0.00 81 1012.6
20260830142035 53 5 0.0 0.0 0.00 0.00 0.00 82 1012.5
20260830141824 53 5 0.0 0.0 0.00 0.00 0.00 82 1012.5
20260830140558 52 5 0.0 0.0 0.00 0.00 0.00 82 1012.5
20260830140329 52 5 0.0 0.0 0.00 0.00 0.00 82 1012.5
20260830135023 52 5 0.0 0.0 0.00 0.00 0.00 82 1012.2
20260830134828 52 5 0.0 0.0 0.00 0.00 0.00 82 1012.2
20260830133525 52 5 0.0 0.0 0.00 0.00 0.00 82 1012.1
20260830133333 52 5 0.0 0.0 0.00 0.00 0.00 82 1012.1
20260830132032 53 5 0.0 0.0 0.00 0.00 0.00 82 1012.0
20260830131823 53 5 0.0 0.0 0.00 0.00 0.00 82 1012.0
20260830130539 53 5 0.0 0.0 0.00 0.00 0.00 82 1012.1
20260830130319 53 5 0.0 0.0 0.00 0.00 0.00 82 1012.1
20260830125058 53 5 0.0 0.0 0.00 0.00 0.00 81 1012.0
20260830124822 53 5 0.0 0.0 0.00 0.00 0.00 81 1012.0
20260830123519 53 5 0.0 0.0 0.00 0.00 0.00 81 1012.1
20260830123350 53 5 0.0 0.0 0.00 0.00 0.00 81 1012.1
20260830122023 53 5 0.0 0.0 0.00 0.00 0.00 80 1012.0
20260830121830 53 5 0.0 0.0 0.00 0.00 0.00 80 1012.0
20260830120544 54 5 0.0 0.0 0.00 0.00 0.00 79 1012.1
20260830120328 54 5 0.0 0.0 0.00 0.00 0.00 79 1012.1
20260830115023 54 5 0.0 0.0 0.00 0.00 0.00 79 1012.3
20260830114836 54 5 0.0 0.0 0.00 0.00 0.00 79 1012.3
20260830113530 54 5 0.0 0.0 0.00 0.00 0.00 79 1012.2
20260830113335 54 5 0.0 0.0 0.00 0.00 0.00 79 1012.2
20260830112033 54 5 0.0 0.0 0.00 0.00 0.00 79 1012.2
20260830111837 54 5 0.0 0.0 0.00 0.00 0.00 80 1012.2
20260830110530 54 5 0.0 0.0 0.00 0.00 0.00 80 1012.1
20260830110340 54 5 0.0 0.0 0.00 0.00 0.00 79 1012.1
20260830105034 54 5 0.0 0.0 0.00 0.00 0.00 80 1012.2
20260830104819 54 5 0.0 0.0 0.00 0.00 0.00 80 1012.2
20260830103556 55 5 0.0 0.0 0.00 0.00 0.00 80 1012.2
20260830103320 55 5 0.0 0.0 0.00 0.00 0.00 80 1012.2